Wind_Speed
2 2 3 5 3 3 6 4 7 5 3 4 5 5 8 8 4 2 4 8 10 11 7 6 6 6 6 7 8 9 9 8 8 7 7 6 5 5 6 5 5 4 4 4 4 4 5 6 7
4 4 4 4 3 7 7 7 5 4 3 5 4 7 7 6 6 6 7 7 7 8 5 7 8 9 8 8 8 8 9 9 10 9 8 8 7 5 4 4 4 4 4 5 5 5 6 6 7
5 6 5 3 6 6 6 6 6 5 5 6 11 10 9 7 7 8 6 5 4 5 6 8 9 10 10 10 10 10 10 10 10 11 10 9 8 8 8 6 4 4 5 5 6 7 8 8 9
3 4 4 5 6 5 6 6 5 6 8 11 12 9 12 11 10 10 8 8 9 10 9 9 10 11 11 11 12 12 11 11 12 12 12 11 9 8 7 7 7 7 7 7 8 9 9 10 10
3 4 6 8 7 8 8 7 7 9 14 15 13 15 14 12 12 12 11 13 12 9 9 10 11 12 13 13 14 14 14 14 14 14 13 12 11 10 8 8 7 8 8 9 11 11 11 11 11
4 5 5 7 9 9 8 7 8 8 11 13 14 15 16 16 16 15 15 14 11 5 10 12 11 12 14 15 16 15 16 15 15 16 15 15 14 13 12 11 10 10 9 9 10 13 14 13 11
5 6 8 9 8 9 9 9 9 8 8 14 15 17 18 17 19 20 20 16 12 13 14 14 12 12 13 14 14 15 16 16 16 17 17 16 16 16 16 15 14 13 12 12 12 12 15 15 14
6 6 7 11 10 9 11 11 11 11 11 14 17 15 19 20 20 21 19 18 17 16 16 12 13 13 13 14 13 14 15 16 17 18 18 17 18 18 18 18 17 16 15 15 13 14 15 16 15
6 6 8 9 8 10 10 11 13 13 14 14 16 19 19 20 22 21 22 23 21 16 13 14 14 12 13 14 15 16 16 17 18 18 19 19 19 19 19 20 21 20 18 17 16 15 15 17 18
7 8 7 10 10 10 13 14 15 17 19 14 17 20 19 19 19 20 22 22 22 22 21 21 20 20 18 16 15 17 19 18 18 18 18 19 19 19 21 23 23 22 21 20 17 17 17 17 18
6 7 8 10 11 12 13 16 18 19 16 15 16 18 22 23 23 21 21 23 25 28 28 27 29 28 24 22 18 19 18 20 19 19 20 22 22 22 23 23 23 22 22 22 21 19 18 18 17
5 7 9 8 11 13 13 16 17 19 16 18 17 21 22 24 27 29 29 30 30 31 34 34 34 31 29 27 25 23 22 21 23 22 23 25 25 25 25 24 23 23 23 23 24 22 22 19 19
9 6 9 10 10 16 17 12 14 8 10 13 15 15 16 22 25 28 32 34 35 36 35 32 30 31 33 34 31 28 27 26 25 24 26 27 27 28 27 24 26 24 23 22 22 21 21 19 21
11 13 10 11 11 12 12 10 14 8 14 18 16 14 21 21 23 26 29 27 25 29 33 33 32 32 30 32 35 37 34 30 28 27 27 30 30 30 28 28 26 24 20 21 22 23 22 21 23
12 17 14 11 9 11 14 16 13 13 19 20 17 23 19 20 24 27 28 26 26 29 31 35 36 37 36 34 32 33 37 40 37 31 28 29 31 32 28 31 26 22 21 22 22 24 24 24 24
15 14 10 10 14 14 19 23 6 18 29 27 29 25 21 21 24 26 30 32 32 31 34 38 41 39 38 37 35 38 41 40 35 36 33 36 33 30 30 30 26 23 23 22 19 20 24 23 23
10 12 17 21 15 20 19 28 31 34 35 31 27 24 23 26 29 30 32 33 34 35 39 43 42 40 39 39 40 44 44 43 38 34 31 21 24 29 30 34 29 30 24 22 18 21 24 24 24
15 22 25 25 22 31 35 40 38 34 32 28 26 25 25 29 33 37 39 39 40 42 43 39 40 42 41 41 39 39 41 43 40 37 36 37 36 38 34 33 33 30 29 25 20 19 23 25 26
19 21 27 31 30 34 37 45 43 37 37 23 21 25 30 37 40 43 43 43 44 42 43 41 44 45 45 40 33 31 33 35 36 36 38 39 37 36 34 32 35 35 26 27 22 21 23 27 28
21 26 29 38 14 40 40 47 42 9 10 28 35 35 35 37 39 41 40 39 39 40 43 45 46 48 46 41 29 26 26 27 29 30 33 34 36 36 35 34 32 26 26 30 30 28 28 30 30
24 28 31 34 37 38 37 33 23 25 32 24 21 24 27 28 30 32 34 37 40 41 42 42 44 44 43 48 31 22 19 23 25 26 27 30 32 35 36 35 33 31 30 29 29 31 36 35 36
25 22 24 31 31 25 25 15 31 13 14 15 13 16 21 24 27 33 38 39 39 38 36 34 34 33 37 41 32 23 16 16 22 24 26 29 31 32 33 36 36 34 32 32 30 26 36 38 42
16 21 22 27 30 28 21 11 11 14 13 19 26 29 31 31 34 38 38 37 34 32 31 29 30 29 29 29 37 20 17 16 18 22 23 24 28 32 32 34 34 33 31 29 26 31 35 38 26
15 22 30 23 28 7 6 14 6 14 22 34 37 32 31 30 30 31 35 35 36 37 38 41 38 41 27 28 24 17 20 18 20 23 21 23 25 29 31 32 32 31 29 27 26 20 31 31 22
23 33 13 6 2 8 7 20 21 37 23 31 28 27 27 28 29 31 34 34 31 26 23 28 30 35 32 26 23 15 19 23 22 25 19 21 23 24 29 30 29 28 28 26 25 31 28 26 24
17 14 5 6 3 13 31 11 12 23 29 26 26 27 25 23 32 33 33 35 21 24 24 23 22 25 32 48 31 14 23 22 23 27 18 20 20 22 27 27 26 24 25 26 18 34 34 28 26
12 8 14 22 31 16 11 21 16 23 22 22 28 28 32 32 29 27 27 23 21 23 23 25 21 21 17 19 24 23 26 27 23 28 17 16 15 16 22 23 21 19 17 25 36 31 36 28 25
16 22 8 7 4 5 8 22 23 17 14 27 35 31 25 24 29 29 29 28 26 23 21 23 23 21 21 23 23 25 26 23 25 26 13 12 12 14 15 17 16 16 17 16 18 30 36 28 24
14 5 4 8 9 3 7 12 18 36 41 34 29 25 24 31 31 22 24 26 26 25 22 23 25 24 22 25 22 21 21 21 23 20 12 10 11 10 11 13 13 15 19 17 15 33 34 28 25
6 1 14 9 8 18 20 33 29 17 25 30 28 26 23 26 23 20 25 28 25 24 20 19 22 25 25 23 23 19 20 21 18 16 15 12 13 12 12 15 16 18 16 15 17 37 29 23 21
Wind_Direction
180 144 141 143 173 142 139 161 189 189 206 271 267 211 222 216 229 238 303 306 299 296 279 263 282 300 314 330 334 341 342 340 336 339 335 316 299 294 290 293 289 282 282 284 294 306 322 335 339
214 203 164 141 172 162 159 160 175 211 238 276 251 239 247 254 243 245 298 313 331 336 297 276 279 287 293 295 300 304 314 320 326 327 332 331 322 300 278 277 284 282 276 281 291 297 306 318 332
199 202 192 173 163 151 164 170 197 198 235 231 247 254 256 264 258 266 282 307 302 311 275 254 255 259 265 275 285 287 290 296 303 309 315 322 335 337 332 323 305 295 283 280 288 296 307 319 328
198 203 213 211 170 167 172 185 214 237 249 258 251 255 254 250 261 277 287 301 302 311 297 278 267 264 265 268 275 278 282 283 286 291 297 305 313 322 320 328 328 313 300 298 298 298 306 311 319
223 213 215 186 178 189 188 211 242 273 271 264 253 259 264 265 269 277 286 301 316 315 313 300 285 275 271 271 274 279 281 281 280 278 280 285 289 295 300 302 310 313 311 308 302 298 299 306 315
231 224 213 175 189 194 215 238 266 293 265 256 256 260 270 277 279 280 288 296 309 301 322 308 293 278 270 268 270 272 272 274 276 277 279 281 279 282 287 288 290 298 298 298 304 306 304 304 303
241 228 210 188 186 211 231 250 265 280 287 277 270 270 274 280 281 277 280 290 295 294 300 300 286 286 284 279 275 274 274 273 272 271 271 272 275 278 280 281 282 285 291 295 298 300 300 304 306
257 241 225 222 222 230 229 250 273 285 294 291 279 270 276 279 278 286 291 293 295 292 293 283 276 280 281 277 280 282 281 278 275 273 275 274 272 272 276 282 284 284 285 287 289 290 293 297 301
254 244 239 237 231 243 254 264 281 284 289 299 292 280 280 279 284 284 287 293 293 291 285 292 286 277 273 274 277 278 282 281 279 277 271 268 270 271 274 278 278 281 282 281 282 281 284 292 297
250 250 243 245 247 251 265 271 277 282 289 294 287 285 277 275 278 286 291 287 286 288 289 292 300 291 277 274 278 281 276 277 282 275 271 271 273 277 278 278 277 279 281 279 276 273 274 280 289
250 247 243 247 254 263 271 278 282 287 290 298 280 269 269 272 275 276 277 281 286 289 292 294 298 296 282 272 269 269 277 273 272 271 274 277 280 283 284 282 280 277 274 273 272 266 267 271 283
264 256 267 273 272 278 281 278 282 278 293 280 284 277 271 269 268 272 276 279 278 281 286 289 291 289 284 278 272 263 266 266 262 263 267 273 277 277 280 280 276 271 269 266 271 264 269 273 278
291 271 274 276 284 280 282 296 285 299 285 301 303 301 306 291 279 273 272 273 277 280 281 282 284 283 284 281 276 268 257 257 260 258 257 261 267 272 275 280 276 273 270 271 270 264 268 267 271
292 289 282 288 274 283 284 281 291 316 287 305 307 288 303 286 276 278 278 279 279 283 286 286 283 284 285 281 278 274 271 265 256 256 260 258 258 264 269 275 271 271 265 258 258 259 264 266 271
288 289 283 257 242 297 288 297 310 295 310 321 303 297 300 279 274 277 273 269 280 285 286 294 294 293 292 290 285 279 274 271 270 268 262 264 262 256 264 269 266 263 263 258 260 262 265 264 264
297 293 287 245 276 299 305 305 289 301 308 303 302 304 303 288 275 267 266 271 272 270 273 289 291 290 291 290 288 292 284 277 272 270 267 268 260 268 263 262 262 255 259 258 263 261 263 261 262
295 290 289 295 286 305 304 294 300 300 302 302 297 296 288 278 271 266 269 272 273 275 280 284 281 280 282 285 286 287 283 273 272 270 268 259 262 278 273 265 260 259 252 252 259 258 255 256 259
304 300 297 301 304 298 294 295 300 303 302 298 287 277 275 275 269 272 276 278 276 280 281 277 277 279 279 283 288 288 280 274 268 266 264 261 262 271 273 263 256 252 254 247 255 260 255 252 251
290 291 296 299 305 299 303 302 304 306 308 306 293 288 279 275 278 279 281 279 275 270 269 269 272 277 282 285 287 282 273 274 275 274 266 263 265 267 270 269 260 269 237 255 272 249 248 249 249
291 292 296 303 296 301 305 303 309 328 290 293 290 286 274 271 272 277 282 280 275 266 261 259 265 270 275 279 276 275 270 266 268 271 271 267 261 259 262 265 263 268 263 263 269 263 250 245 248
293 296 299 299 305 304 306 306 307 299 299 291 290 281 283 286 289 290 288 282 273 268 265 264 264 264 266 274 275 277 275 274 273 270 266 264 259 257 253 258 261 263 265 269 269 273 257 245 239
300 297 296 299 309 311 302 292 303 298 302 295 300 311 308 301 294 292 286 273 267 268 269 269 265 263 261 261 269 274 282 277 271 278 275 267 257 250 248 250 255 258 260 267 269 268 264 267 234
298 303 303 303 299 300 295 262 287 306 303 305 305 300 294 285 279 276 271 270 272 277 279 281 280 270 270 261 265 271 281 291 291 281 282 277 262 248 243 243 247 251 253 259 263 276 259 230 215
306 307 309 301 297 272 174 349 255 306 308 301 300 299 297 284 269 269 271 277 285 287 288 289 282 284 263 257 252 263 282 289 290 287 286 286 268 247 239 240 242 244 248 256 253 276 241 206 204
310 324 331 328 325 268 292 326 284 292 306 301 298 293 286 279 280 284 289 297 297 303 302 299 292 278 258 257 242 250 271 282 285 286 289 295 276 246 236 239 243 245 245 251 252 251 238 197 207
327 340 261 279 279 296 303 259 287 300 296 285 286 287 282 295 298 302 305 310 313 315 309 308 297 294 271 251 259 273 268 272 279 287 286 298 280 244 229 236 244 248 249 245 239 232 206 189 207
317 331 296 287 284 280 266 276 301 299 288 305 307 291 315 305 296 303 305 320 319 309 305 308 309 298 295 258 277 268 272 266 271 278 285 288 276 247 233 234 240 238 241 248 278 230 186 185 205
293 299 294 271 308 293 288 299 287 286 302 311 305 302 299 305 319 320 327 326 324 317 307 305 307 302 291 280 285 280 272 269 259 266 270 268 257 235 226 227 228 230 253 272 287 228 171 183 206
311 326 265 295 279 271 304 279 291 291 296 301 308 304 304 311 313 319 331 328 325 320 314 303 304 302 297 295 295 286 281 271 259 260 251 246 240 210 192 203 220 240 252 256 290 178 172 180 204
221 311 314 300 289 279 280 278 304 302 301 303 301 275 314 308 313 308 318 331 329 325 314 308 305 303 302 299 293 287 282 273 261 251 232 223 218 204 227 228 243 250 239 242 226 171 170 188 204
Height
3147 3148 3149 3149 3154 3151 3151 3153 3152 3153 3153 3152 3152 3152 3153 3153 3153 3156 3152 3151 3151 3150 3150 3150 3150 3150 3150 3150 3151 3150 3150 3149 3149 3148 3146 3145 3145 3144 3143 3143 3143 3142 3142 3141 3140 3139 3138 3138 3137
3149 3149 3149 3149 3151 3150 3151 3151 3152 3153 3153 3152 3152 3152 3152 3152 3151 3151 3151 3150 3150 3150 3150 3150 3149 3149 3149 3149 3149 3149 3149 3148 3148 3147 3147 3146 3145 3143 3141 3141 3141 3141 3141 3140 3140 3139 3138 3137 3137
3149 3149 3149 3149 3150 3149 3150 3151 3152 3153 3153 3153 3151 3151 3151 3151 3151 3150 3149 3149 3148 3148 3148 3147 3147 3147 3147 3148 3148 3148 3147 3147 3147 3146 3146 3146 3145 3145 3144 3143 3141 3141 3140 3139 3139 3138 3138 3138 3137
3147 3148 3150 3149 3149 3150 3151 3152 3151 3152 3152 3151 3150 3149 3149 3150 3150 3150 3149 3149 3148 3147 3147 3147 3146 3146 3146 3146 3146 3146 3145 3145 3145 3144 3145 3144 3144 3143 3143 3142 3141 3141 3140 3139 3138 3137 3137 3137 3137
3147 3148 3148 3148 3149 3149 3150 3151 3151 3151 3151 3149 3149 3147 3147 3148 3148 3148 3147 3147 3147 3146 3146 3146 3145 3145 3144 3144 3144 3144 3143 3144 3144 3144 3143 3143 3142 3142 3141 3140 3139 3139 3139 3138 3137 3135 3136 3136 3135
3147 3148 3148 3148 3148 3149 3150 3150 3150 3149 3148 3148 3147 3147 3146 3146 3146 3146 3146 3146 3145 3145 3144 3144 3144 3143 3143 3142 3142 3141 3142 3142 3141 3141 3141 3141 3141 3140 3140 3139 3138 3137 3137 3137 3136 3134 3134 3134 3134
3147 3147 3147 3147 3147 3148 3148 3148 3148 3148 3147 3145 3144 3145 3146 3145 3143 3143 3144 3144 3144 3143 3143 3142 3141 3141 3140 3140 3140 3140 3139 3139 3139 3139 3139 3139 3139 3139 3138 3137 3136 3136 3135 3135 3134 3133 3131 3132 3132
3146 3146 3146 3146 3146 3146 3146 3146 3146 3146 3145 3143 3141 3141 3142 3141 3140 3139 3139 3140 3141 3140 3140 3139 3138 3138 3138 3137 3137 3137 3137 3136 3137 3137 3137 3137 3136 3136 3136 3135 3134 3134 3134 3133 3132 3132 3130 3128 3129
3144 3145 3144 3144 3144 3144 3144 3144 3143 3143 3142 3141 3140 3138 3138 3137 3136 3136 3136 3136 3135 3135 3135 3135 3135 3135 3135 3134 3134 3133 3133 3134 3134 3135 3134 3134 3133 3133 3133 3133 3132 3132 3131 3131 3130 3129 3129 3127 3125
3143 3143 3142 3142 3143 3143 3142 3142 3141 3140 3139 3140 3138 3136 3135 3134 3133 3132 3131 3132 3132 3132 3132 3131 3132 3132 3131 3130 3129 3129 3129 3129 3129 3130 3130 3130 3131 3131 3130 3130 3129 3129 3129 3127 3127 3127 3126 3124 3122
3141 3141 3141 3141 3141 3141 3141 3139 3138 3137 3137 3136 3134 3133 3132 3131 3131 3130 3129 3127 3126 3126 3127 3128 3128 3128 3127 3126 3125 3125 3124 3124 3125 3125 3126 3126 3127 3127 3127 3126 3125 3125 3124 3124 3124 3123 3123 3122 3120
3141 3140 3139 3140 3139 3138 3138 3136 3135 3133 3134 3132 3132 3130 3129 3128 3127 3126 3125 3123 3122 3122 3121 3122 3122 3122 3122 3122 3122 3121 3120 3119 3119 3119 3120 3121 3122 3122 3122 3121 3120 3120 3121 3120 3121 3121 3120 3120 3118
3139 3139 3138 3137 3137 3135 3134 3133 3131 3132 3131 3130 3129 3129 3127 3125 3123 3122 3121 3120 3119 3117 3116 3117 3117 3116 3116 3115 3115 3116 3116 3115 3115 3114 3114 3114 3115 3116 3116 3117 3117 3116 3116 3117 3118 3119 3118 3117 3115
3137 3135 3135 3135 3133 3132 3131 3131 3129 3131 3128 3127 3126 3126 3125 3122 3119 3117 3116 3116 3116 3114 3111 3111 3111 3111 3110 3110 3108 3108 3108 3109 3109 3109 3109 3108 3108 3110 3111 3113 3112 3111 3112 3112 3113 3115 3114 3113 3112
3134 3133 3132 3131 3131 3129 3127 3127 3128 3126 3124 3123 3122 3120 3118 3117 3116 3113 3112 3112 3112 3110 3107 3104 3103 3103 3102 3102 3101 3101 3101 3102 3104 3104 3103 3103 3103 3102 3104 3106 3107 3108 3107 3109 3109 3110 3110 3109 3108
3132 3131 3130 3130 3129 3127 3125 3123 3122 3121 3118 3117 3115 3115 3112 3110 3108 3107 3106 3105 3104 3103 3103 3100 3097 3096 3094 3093 3093 3092 3092 3092 3095 3097 3098 3098 3097 3098 3098 3100 3101 3103 3102 3103 3104 3103 3105 3104 3104
3130 3129 3127 3127 3126 3125 3122 3117 3118 3116 3113 3111 3110 3109 3105 3102 3101 3100 3099 3097 3096 3094 3093 3091 3089 3088 3088 3086 3085 3084 3083 3084 3086 3088 3090 3090 3092 3093 3092 3094 3095 3097 3096 3096 3096 3097 3099 3100 3100
3128 3126 3124 3123 3123 3119 3115 3111 3110 3109 3107 3106 3105 3102 3099 3094 3093 3091 3090 3090 3088 3086 3084 3082 3080 3079 3078 3078 3077 3075 3073 3073 3077 3080 3082 3084 3085 3086 3084 3085 3086 3089 3090 3091 3090 3091 3092 3094 3095
3125 3123 3120 3118 3118 3111 3107 3102 3102 3101 3099 3097 3095 3093 3091 3089 3085 3082 3081 3080 3078 3078 3076 3074 3071 3070 3069 3068 3070 3070 3067 3066 3066 3068 3072 3073 3076 3076 3076 3078 3079 3079 3074 3085 3084 3082 3086 3088 3090
3122 3119 3116 3112 3111 3108 3102 3094 3094 3094 3092 3091 3088 3085 3082 3080 3077 3074 3072 3071 3070 3069 3068 3067 3064 3061 3061 3060 3061 3062 3061 3060 3059 3058 3059 3062 3065 3067 3068 3070 3071 3074 3076 3078 3078 3079 3081 3083 3085
3120 3116 3112 3108 3102 3100 3095 3087 3090 3090 3084 3081 3080 3078 3076 3075 3073 3070 3068 3066 3064 3061 3059 3058 3056 3055 3053 3053 3052 3053 3053 3052 3051 3049 3050 3052 3054 3056 3059 3061 3064 3066 3068 3069 3069 3073 3075 3076 3079
3114 3112 3108 3104 3101 3095 3095 3085 3084 3080 3079 3077 3075 3074 3073 3071 3069 3066 3063 3059 3057 3054 3052 3051 3049 3047 3045 3044 3043 3044 3045 3045 3043 3041 3041 3043 3045 3047 3050 3053 3056 3059 3060 3060 3063 3066 3066 3067 3066
3111 3107 3104 3100 3097 3092 3089 3087 3078 3076 3074 3073 3071 3069 3067 3065 3062 3059 3056 3052 3049 3048 3047 3047 3045 3042 3041 3037 3037 3036 3034 3036 3037 3035 3033 3034 3035 3037 3040 3044 3048 3051 3052 3055 3055 3057 3054 3059 3062
3107 3103 3100 3095 3092 3087 3085 3086 3075 3074 3073 3070 3066 3063 3061 3058 3056 3053 3051 3048 3045 3042 3040 3038 3035 3034 3033 3032 3030 3026 3027 3027 3030 3029 3026 3025 3026 3027 3030 3034 3039 3042 3045 3047 3049 3049 3051 3051 3058
3106 3101 3097 3090 3088 3085 3082 3080 3074 3072 3068 3065 3063 3060 3057 3055 3052 3050 3047 3045 3041 3037 3033 3029 3025 3024 3024 3026 3021 3018 3021 3022 3023 3022 3020 3017 3017 3020 3022 3025 3030 3035 3038 3040 3043 3044 3047 3049 3056
3106 3106 3109 3102 3091 3083 3082 3074 3068 3067 3065 3062 3061 3058 3055 3053 3050 3046 3042 3039 3036 3033 3027 3024 3020 3017 3013 3015 3015 3012 3015 3017 3016 3016 3014 3011 3011 3013 3015 3020 3025 3028 3031 3034 3035 3036 3040 3045 3053
3105 3104 3105 3098 3090 3084 3075 3070 3065 3064 3062 3061 3058 3055 3052 3049 3047 3044 3039 3034 3030 3027 3021 3017 3013 3011 3009 3007 3009 3010 3008 3010 3010 3009 3008 3006 3007 3007 3011 3016 3020 3023 3025 3028 3027 3027 3033 3042 3051
3102 3099 3097 3096 3093 3084 3072 3069 3064 3061 3060 3058 3055 3052 3046 3045 3041 3038 3034 3028 3024 3021 3017 3013 3009 3006 3005 3003 3002 3004 3003 3002 3003 3003 3002 3002 3004 3005 3007 3010 3014 3017 3018 3019 3020 3020 3027 3039 3047
3095 3093 3094 3093 3090 3084 3076 3065 3063 3060 3057 3052 3048 3046 3043 3040 3037 3033 3031 3025 3020 3016 3013 3009 3004 3001 2999 2997 2997 2997 2995 2995 2996 2997 2997 2999 3001 3001 3004 3005 3010 3012 3014 3014 3015 3017 3026 3035 3044
3090 3091 3090 3089 3084 3082 3077 3057 3057 3054 3052 3048 3044 3040 3038 3035 3032 3029 3026 3023 3019 3012 3009 3006 3001 2997 2994 2993 2992 2990 2989 2990 2991 2992 2992 2996 2998 3000 3002 3002 3003 3006 3008 3009 3010 3017 3026 3035 3042